Hourly Weather Observations

Printer Friendly

AL    FL    LA    MS

Data Buoys:

Western Gulf of Mexico
Eastern Gulf of Mexico

Alabama

 

Issued 2023-02-02 18:10:00

064-021900-

SOUTHWEST ALABAMA

  

CITY           SKY/WX    TMP DP  RH WIND       PRES   REMARKS

MOBILE         FOG       55  51  86 N7        30.11F VSB 1            

6HR MIN TEMP:  50; 6HR MAX TEMP:  56;                                



BROOKLEY FIELD CLOUDY    58  53  84 N7        30.11F HAZE             

6HR MIN TEMP:  52; 6HR MAX TEMP:  58;                                



EVERGREEN      CLOUDY    55  51  86 N5        30.13F FOG              

6HR MIN TEMP:  50; 6HR MAX TEMP:  56; 6HR PCP:  0.01;                




Mississippi

Issued 2023-02-02 18:10:00

082-021900-

COASTAL MISSISSIPPI

  

CITY           SKY/WX    TMP DP  RH WIND       PRES   REMARKS

BAY ST LOUIS   CLOUDY    55  54  94 NE6       30.12S FOG              

BILOXI         CLOUDY    57  54  88 N8        30.08F                  

6HR MIN TEMP:  52; 6HR MAX TEMP:  58;                                



GULFPORT       CLOUDY    58  54  86 N6        30.10F FOG              

6HR MIN TEMP:  53; 6HR MAX TEMP:  59;                                



PASCAGOULA     CLOUDY    60  54  80 N8        30.09F                  

6HR MIN TEMP:  52; 6HR MAX TEMP:  63;                                




Florida

Issued 2023-02-02 18:11:00

010-012>015-112-114-115-021900-

PANHANDLE FLORIDA

  

CITY           SKY/WX    TMP DP  RH WIND       PRES   REMARKS

PENSACOLA      CLOUDY    70  65  84 S3        30.08F                  

PENSACOLA NAS  CLOUDY    70  67  90 SE5       30.07F FOG              

MILTON NAS     CLOUDY    69  63  81 S5        30.09F                  

CRESTVIEW      CLOUDY    71  66  84 S6        30.10F                  

DUKE FIELD     CLOUDY    71  66  85 S7        30.08F                  

VALPARAISO     CLOUDY    69  68  97 SE6       30.05F                  

MARY ESTHER    MOSUNNY   70  15  12 S7        30.07F                  

PANAMA CITY    CLOUDY    72  68  87 SE8       30.09F                  

TYNDALL AFB    MOSUNNY   74  70  88 S15       30.09F                  

APALACHICOLA   CLOUDY    69  69 100 S6        30.12F                  



STATION/POSITION SKY/WX   TEMP    WIND        PRES    WAVE   SWELL

                          AIR SEA DIR/SP/G            HT/PER HT/PER

                          (F)     (DEG/KT/KT) (MB)    (FT/S) (FT/S)

30.1N   87.6W              62 64   70/  8/  8 1018.7F   1/ 7   2/ 7

29.2N   88.2W              74 74  190/ 14/ 16 1019.2F   2/ 3

28.8N   86.0W              74     180/ 12/ 14 1020.4F   2/ 3

PANAMA CITY BEAC           64 62  140/  8/  9 1020.2F

TOWER C                    69                 1020.4F

28.5N   84.5W              71 72  160/ 12/ 16 1019.2F   2/ 3



 


Louisiana

Issued 2023-02-02 18:11:00

021811

RWRLIX

NEW ORLEANS REGIONAL WEATHER ROUNDUP

NATIONAL WEATHER SERVICE NEW ORLEANS LA

1200 PM CST THU FEB 02 2023



NOTE: "FAIR" INDICATES FEW OR NO CLOUDS BELOW 12,000 FEET WITH NO

      SIGNIFICANT WEATHER AND/OR OBSTRUCTIONS TO VISIBILITY.

      SKY/WX - SKY CONDITION AND SIGNIFICANT WEATHER.

      TMP - AIR TEMPERATURE.     DP    - DEWPOINT TEMPERATURE.

      RH  - RELATIVE HUMIDITY.   PRES  - PRESSURE.

      HI  - HEAT INDEX.          WCI   - WIND CHILL INDEX.



*  THESE STATIONS ARE NOT NWS OR FAA STATIONS AND ARE NOT UNDER

   NWS QUALITY CONTROL. 



LAZ038-048-061-063-065>067-069-076-077-021900-

SOUTHEAST LOUISIANA

  

CITY           SKY/WX    TMP DP  RH WIND       PRES   REMARKS

N.O. INTL ARPT CLOUDY    59  59 100 CALM      30.09F FOG              

6HR MIN TEMP:  54; 6HR MAX TEMP:  59;                                



N.O. DWNTWN HE NOT AVBL                                               

N.O. LAKEFRONT CLOUDY    60  58  92 E7        30.09F FOG              

6HR MIN TEMP:  56; 6HR MAX TEMP:  60;                                



RESERVE*       CLOUDY    55  54  94 E3        30.10F FOG              

SLIDELL        CLOUDY    56  55  97 NE5       30.09F FOG              

6HR MIN TEMP:  53; 6HR MAX TEMP:  56;                                



BATON ROUGE    RAIN      47  45  93 NW12G26   30.16R VSB 1            

6HR MIN TEMP:  45; 6HR MAX TEMP:  49; 6HR PCP:  0.09;                



BOOTHVILLE*    CLOUDY    68  65  92 CALM      30.10F                  

6HR MIN TEMP:  58; 6HR MAX TEMP:  68;                                



BELLE CHASSE*  CLOUDY    65  62  90 SE5       30.08F FOG              

6HR MIN TEMP:  57; 6HR MAX TEMP:  66;                                



BOGALUSA*      CLOUDY    51  49  93 NE5       30.12F                  

6HR MIN TEMP:  48; 6HR MAX TEMP:  51;                                



GALLIANO*      CLOUDY    69  66  88 CALM      30.10F                  

6HR MIN TEMP:  62; 6HR MAX TEMP:  69;                                



NEW ROADS*     RAIN      39  39  98 MISG      30.19F                  

6HR MIN TEMP:  39; 6HR MAX TEMP:  43; 6HR PCP:  0.24;                



GONZALES*      CLOUDY    54  53  99 E3        30.10F FOG              

6HR MIN TEMP:  49; 6HR MAX TEMP:  54;                                



HAMMOND*       CLOUDY    50  50  99 CALM      30.10F FOG              

6HR MIN TEMP:  47; 6HR MAX TEMP:  50;                                



HOUMA*         CLOUDY    64  64 100 CALM      30.10F FOG